Flag for Vietnam Weather past 2 weeks in Da Nang, Vietnam

Now
77 °F

Passing clouds.


Feels Like: 78 °F
Forecast: 78 / 89 °F
Wind: 2 mph from Southwest

Location: Da Nang Airport

Current Time: Jul 31, 2015 at 10:55:33 PM

Latest Report: Jul 31, 2015 at 10:30 PM


Visibility: N/A

Pressure: 29.86 "Hg

Humidity: 94%

Dew point: 75 °F

Location of Da NangLocation

Historic Weather in Da Nang — Graph

°F

Da Nang temperature yesterday

Maximum temperature yesterday: 81 °F (at 12:30 PM)
Minimum temperature yesterday: 72 °F (at 6:30 AM)
Average temperature yesterday: 76 °F

Past Weeks' High & Low Weather Summary

 TemperatureHumidityPressure
High102 °F (Jul 23, 2:00 PM)100% (Jul 31, 5:00 AM)29.92 "Hg (Jul 31, 5:00 AM)
Low72 °F (Jul 30, 6:30 AM)37% (Jul 23, 2:00 PM)29.59 "Hg (Jul 17, 3:00 PM)
Average84 °F73%29.77 "Hg
* Reported Jul 16 9:00 PM — Jul 31 9:30 PM, Da Nang, Weather by CustomWeather, © 2015

Note: Actual official high and low records may vary slightly from our data, if they occured in-between our weather recording intervals... More about our weather records

Advertising

Da Nang weather history for previous 24 hours

 ConditionsComfort  
Time TempWeatherWind HumidityBarometerVisibility
9:30 PM
Fri, Jul 31
79 °FPassing clouds.1 mph89%29.86 "HgN/A
9:00 PM79 °FPassing clouds.2 mph89%29.83 "HgN/A
8:30 PM79 °FPassing clouds.No wind94%29.83 "HgN/A
8:00 PM81 °FPassing clouds.No wind84%29.83 "HgN/A
7:30 PM81 °FPartly cloudy.1 mph84%29.83 "HgN/A
7:00 PM81 °FPartly cloudy.1 mph84%29.83 "HgN/A
6:30 PM81 °FPartly cloudy.2 mph84%29.80 "HgN/A
6:00 PM81 °FBroken clouds.2 mph84%29.80 "HgN/A
5:30 PM81 °FBroken clouds.3 mph84%29.80 "HgN/A
5:00 PM82 °FBroken clouds.3 mph79%29.80 "HgN/A
4:30 PM84 °FPartly sunny.3 mph70%29.80 "HgN/A
4:00 PM84 °FPartly sunny.1 mph70%29.80 "HgN/A
3:30 PM84 °FPartly sunny.3 mph70%29.80 "HgN/A
3:00 PM84 °FLight rain. Broken clouds.5 mph70%29.80 "HgN/A
2:30 PM82 °FLight rain. Broken clouds.2 mph74%29.83 "HgN/A
2:00 PM81 °FLight rain. Broken clouds.2 mph79%29.83 "HgN/A
1:30 PM79 °FLight rain. Broken clouds.1 mph89%29.83 "HgN/A
1:00 PM79 °FLight rain. Broken clouds.1 mph89%29.86 "HgN/A
12:30 PM79 °FLight rain. Broken clouds.1 mph89%29.86 "HgN/A
12:00 PM79 °FLight rain. Broken clouds.2 mph84%29.86 "Hg5 mi
11:30 AM79 °FBroken clouds.3 mph84%29.89 "Hg5 mi
11:00 AM77 °FBroken clouds.3 mph89%29.89 "Hg5 mi
10:30 AM77 °FLight rain. Broken clouds.6 mph89%29.89 "Hg4 mi
10:00 AM77 °FLight rain. Broken clouds.5 mph89%29.89 "Hg4 mi
9:30 AM75 °FLight rain. Broken clouds.3 mph94%29.89 "Hg3 mi
9:00 AM75 °FLight rain. Broken clouds.2 mph94%29.89 "Hg4 mi
8:30 AM75 °FLight rain. Broken clouds.5 mph94%29.89 "Hg3 mi
8:00 AM75 °FLight rain. Broken clouds.No wind89%29.89 "Hg4 mi
7:30 AM75 °FLight rain. Broken clouds.2 mph89%29.89 "Hg5 mi
7:00 AM75 °FLight rain. Broken clouds.1 mph94%29.86 "Hg5 mi
6:30 AM75 °FLight rain. Broken clouds.No wind94%29.86 "Hg5 mi
6:00 AM73 °FLight rain. Broken clouds.1 mph100%29.86 "Hg5 mi
5:30 AM73 °FBroken clouds.3 mph100%29.83 "Hg5 mi
5:00 AM73 °FPartly cloudy.1 mph100%29.83 "Hg5 mi
3:00 AM75 °FPartly cloudy.2 mph94%29.83 "Hg5 mi
Weather by CustomWeather, © 2015

See weather overviewHow to use our weather pages